This is the latest recevied weather packets stored in our database for station/object KE4ODN. If no packets are shown the sender has not sent any weather packets the latest 10 day(s).
| Time | Temp. | Humidity | Pressure | Rain* | Wind** | Luminosity | Snow |
|---|---|---|---|---|---|---|---|
| 1777868163 | 10° C | 91% | 1018.1 hPa | 0 mm | - | 0 W/m² | - |
| 1777867683 | 10.56° C | 91% | 1018.1 hPa | 0 mm | - | 0 W/m² | - |
| 1777866483 | 10.56° C | 91% | 1018.3 hPa | 0 mm | - | 0 W/m² | - |
| 1777864323 | 11.11° C | 91% | 1018.4 hPa | 0 mm | - | 0 W/m² | - |
| 1777863363 | 11.11° C | 91% | 1018.3 hPa | 0 mm | - | 0 W/m² | - |
| 1777862184 | 11.67° C | 89% | 1018.3 hPa | 0 mm | - | 0 W/m² | - |
| 1777860243 | 12.78° C | 86% | 1017.9 hPa | 0 mm | - | 0 W/m² | - |
| 1777860003 | 12.78° C | 86% | 1017.8 hPa | 0 mm | - | 0 W/m² | - |
| 1777859763 | 12.78° C | 85% | 1017.9 hPa | 0 mm | - | 0 W/m² | - |
| 1777858323 | 13.33° C | 82% | 1017.6 hPa | 0 mm | - | 0 W/m² | - |
| 1777858083 | 13.33° C | 81% | 1017.5 hPa | 0 mm | - | 0 W/m² | - |
| 1777856643 | 14.44° C | 77% | 1017.4 hPa | 0 mm | - | 0 W/m² | - |
| 1777856403 | 15° C | 76% | 1017.4 hPa | 0 mm | - | 0 W/m² | - |
| 1777855684 | 15.56° C | 74% | 1017.3 hPa | 0 mm | - | 0 W/m² | - |
| 1777852324 | 18.33° C | 57% | 1017 hPa | 0 mm | - | 14 W/m² | - |
| 1777850185 | 20° C | 47% | 1016.9 hPa | 0 mm | - | 26 W/m² | - |
| 1777848004 | 20.56° C | 40% | 1017.1 hPa | 0 mm | - | 37 W/m² | - |
| 1777846804 | 21.11° C | 46% | 1017.2 hPa | 0 mm | - | 42 W/m² | - |
| 1777846084 | 21.11° C | 39% | 1017.3 hPa | 0 mm | - | 44 W/m² | - |
| 1777845124 | 21.11° C | 38% | 1017.4 hPa | 0 mm | - | 47 W/m² | - |
| 1777843444 | 21.67° C | 37% | 1017.7 hPa | 0 mm | - | 54 W/m² | - |
| 1777842964 | 21.67° C | 38% | 1017.8 hPa | 0 mm | - | 56 W/m² | - |
| 1777842004 | 21.67° C | 39% | 1017.9 hPa | 0 mm | - | 62 W/m² | - |
| 1777839844 | 21.67° C | 41% | 1018.5 hPa | 0 mm | - | 745 W/m² | - |
| 1777838884 | 21.67° C | 45% | 1018.8 hPa | 0 mm | - | 782 W/m² | - |
* Rain latest hour (hover to see other rain measurements)
** Current wind speed in m/s (hover to see current wind gust speed)